sat.trackr.live / text

‹ back to catalog

YAOGAN-35 01C

NORAD 49393 · 2021-101D

PAYLOAD ACTIVE UNKNOWN

§ Identity

Operator
Country
PRC
Launch date
2021-11-06
Launch site
XICLF
Launch vehicle
Mass (kg)
RCS (m²)

External: N2YO · Heavens-Above · Gunter

§ Orbital elements

Epoch: 2026-09-20T17:53:56.517792Z

Period
94.46 min
Inclination
35.0060°
Eccentricity
0.0004862
Mean motion
15.24410573 rev/d
Perigee alt
489.2 km
Apogee alt
495.9 km
Semi-major
6,870.7 km
B*
3.4034e-4
RAAN
23.3578°
Arg perigee
184.0744°
Mean anomaly
175.9932°
Rev number
27,159

§ Raw data

YAOGAN-35 01C1 49393U 21101D   26263.74579303  .00008526  00000+0  34034-3 0  99972 49393  35.0060  23.3578 0004862 184.0744 175.9932 15.24410573271592

JSON: /api/v1/satellites/49393 · /tle

For live sub-satellite position, see the globe view (requires WebGL).

§ Visibility from observer

Set your observer location to see the next 7 days of passes ≥ 10°. The values pass through the URL so the page stays shareable.

No JS? Fill the form by hand. The geolocation button needs JavaScript.